Regional Weather Roundup
Issued by NWS Green Bay, WI

Home | Current Version | Previous Version | Graphics & Text | Print | Product List | Glossary Off
Versions: 1 2 3 4 5 6 7 8 9 10 11 12 13 14 15 16 17 18 19 20 21 22 23 24 25 26 27 28 29 30 31 32 33 34 35 36 37 38 39 40 41 42 43 44 45 46 47 48 49 50

000
ASUS43 KGRB 291601
RWRGRB

NORTH-CENTRAL AND NORTHEAST WISCONSIN REGIONAL WEATHER ROUNDUP
NATIONAL WEATHER SERVICE GREEN BAY WI
1100 AM CDT SUN MAY 29 2016

WIZ005-009-010>012-018-019-291700-
NORTH CENTRAL WISCONSIN

CITY           SKY/WX    TMP DP  RH WIND       PRES   REMARKS
IRONWOOD       CLOUDY    63  61  94 W10       29.80S
MANITOWISH WTR NOT AVBL
ARBOR VITAE    NOT AVBL
EAGLE RIVER    NOT AVBL
LAND O LAKES   NOT AVBL
RHINELANDER    CLOUDY    67  58  72 W13       29.86S
PHILLIPS       NOT AVBL
ANTIGO         NOT AVBL
TOMAHAWK       NOT AVBL
MERRILL        NOT AVBL
$$

WIZ013-073-291700-
NORTHEAST WISCONSIN

CITY           SKY/WX    TMP DP  RH WIND       PRES   REMARKS
IRON MOUNTAIN  RAIN      63  60  90 SW8       29.82R FOG
MARINETTE      MOSUNNY   73  62  68 SW17G23   29.84S
$$

WIZ017-030-035>037-045-291700-
CENTRAL WISCONSIN

CITY           SKY/WX    TMP DP  RH WIND       PRES   REMARKS
MEDFORD        NOT AVBL
WAUSAU         CLOUDY    68  59  73 W10G21    29.86S
MOSINEE        CLOUDY    66  63  88 W12G18    29.90R
MARSHFIELD     CLOUDY    67  58  72 W17G24    29.90R
WISC RAPIDS    CLOUDY    68  57  68 NW16G23   29.92R
STEVENS POINT  NOT AVBL
WAUPACA        NOT AVBL
SHAWANO        NOT AVBL
CLINTONVILLE   NOT AVBL
WAUTOMA        PTSUNNY   69  63  81 W17       29.92R
$$

WIZ038-039-048-051-291700-
FOX VALLEY

CITY           SKY/WX    TMP DP  RH WIND       PRES   REMARKS
NWS GREEN BAY  PTSUNNY   68  62  81 SW13      29.87S
APPLETON       CLOUDY    66  64  94 SW16      29.88S
OSHKOSH        PTSUNNY   70  61  73 VRB7G20   29.90R
FOND DU LAC    PTSUNNY   71  62  73 SW14G23   29.92R
$$

WIZ022-050-052-291700-
EAST CENTRAL WISCONSIN

CITY           SKY/WX    TMP DP  RH WIND       PRES   REMARKS
EPHRAIM        NOT AVBL
STURGEON BAY   NOT AVBL
MANITOWOC      NOT AVBL
SHEBOYGAN      CLOUDY    71  61  70 SW16G23   29.92R
$$

LMZ563-521-522-541>543-291700-
LAKESHORE

STATION/POSITION TIME  TEMP    WIND        PRES    VSBY  WAVE
                       AIR SEA DIR/SP/G                  HT/PER
                 (UTC) (F)     (DEG/KT/KT) (MB)    (MI)  (FT/S)
SHEBOYGAN LKSHOR 1500   61     180/ 16/ 16 1012.9F
KEWAUNEE LKSHORE 1500   52     170/ 12/ 15 1011.3F
ALGOMA MARINA    1517          220/  9/ 11   N/A
NORTHPORT PIER   1500   58     140/  8/ 10 1011.2F
N MID LAKE BUOY  1450   49 46  190/ 14/ 17 1011.4F         2/ 5
SISTER BAY LKSHO 1505   72     160/  9/ 10   N/A
CHAMBERS ISLAND  1500   69     190/  7/ 15 1010.8
MENOMINEE LKSHOR 1500   69     180/  9/ 16 1009.7F
$$



USA.gov is the U.S. government's official web portal to all federal, state and local government web resources and services.